Find GPS III SV07

NORAD ID: 62339 Int'l Des: 2024-242 Owner: SFSSC Country: US Constellation: GPS operational
MEOCIRCULARGNSS

現在のビュー

3D地球を読み込み中...

About GPS III SV07

GPS III SV07 (NORAD 62339) is a GPS constellation satellite launched Dec 17, 2024 by SFSSC of US. It operates in MEO, CIRCULAR, GNSS orbit with a mass of 4352.00 kg.

GPS III SV07について

説明を読み込み中...

次回通過

Passes for default location (London). Set your location on the main map for personalized predictions.

高度履歴

Loading altitude history...

軌道要素

1 62339U 24242A 26173.07548361 -.00000100 00000-0 00000-0 0 9992
2 62339 54.8465 333.9823 0017575 4.4653 174.2883 2.00571761 11357
Epoch: Jun 22, 2026 • Age: 42 hours

現在のステータス

高度 20135.0 km
速度 3.88 km/s
衛星直下点 2.11°N, 126.12°E
打ち上げ日 Dec 17, 2024
運用期間 1.5 years
タイプ navigation

技術仕様

分類 Payload
質量 4352.00 kg
乾燥質量 2160.00 kg
総質量 4352.00 kg
長さ 3.40 m
直径 1.80 m
スパン 14.00 m
形状 Box + 2 pan
製造者 LMSSD
バスタイプ A2100
フェーズステータス In Orbit
所有者/国 SFSSC/US

Most Searched